{"data":{"norad_id":54831,"intl_designator":"2022-177M","name":"STARLINK-5395","alt_names":[],"object_type":"PAYLOAD","status":"ACTIVE","operator":null,"country":"US","launch_date":"2022-12-28","launch_site_code":"AFETR","launch_vehicle":null,"mission":null,"orbit_class":"UNKNOWN","rcs_meters":null,"size_class":null,"mass_kg":null,"dimensions":null,"purposes":["comms"],"wikipedia_slug":null,"has_3d_model":false,"image_url":null,"decayed_at":null,"tle_current":{"epoch":"2026-09-19T22:52:32.407104Z","epoch_age_seconds":140605,"freshness":"FRESH","line1":"1 54831U 22177M   26262.95315286  .00000403  00000+0  24182-4 0  9994","line2":"2 54831  43.0022 118.9411 0001424 252.7889 107.2807 15.27574969206638","mean_motion":15.27574969,"eccentricity":0.0001424,"inclination_deg":43.0022,"raan_deg":118.9411,"arg_perigee_deg":252.7889,"mean_anomaly_deg":107.2807,"bstar":2.4182e-5,"rev_number":20663,"period_min":94.267059176982,"perigee_km":482.08712565961,"apogee_km":484.04119575018,"semimajor_km":6861.2011607049,"source":"CELESTRAK","updated_at":"2026-09-21T09:00:33.134454Z"}}}